Location: Caltech
(34.1382°N, 118.1253°W)
Time: 22:31:27
(UTC-07:00)

Cosmos 1833 - Visible Passes

Search period start: 28 April 2017 00:00
Search period end: 08 May 2017 00:00
Orbit: 830 x 869 km, 70.9° (Epoch: 27 April)

Date Brightness Start Highest point End Pass type
(mag) Time Alt. Az. Time Alt. Az. Time Alt. Az.
28 Apr 6.9 05:11:40 10° SE 05:14:49 15° E 05:17:58 10° ENE visible
29 Apr 6.8 04:58:59 10° SE 05:02:06 15° E 05:05:12 10° ENE visible
30 Apr 6.8 04:46:18 10° SE 04:49:22 15° E 04:52:26 10° ENE visible
01 May 6.8 04:33:38 10° SE 04:36:39 15° E 04:39:40 10° ENE visible
02 May 6.7 04:20:57 10° SE 04:23:55 15° E 04:26:54 10° ENE visible
03 May 6.7 04:08:16 10° SE 04:11:12 15° E 04:14:07 10° ENE visible
04 May 6.7 03:55:35 10° SE 03:58:28 14° E 04:01:21 10° ENE visible
05 May 6.7 03:42:55 10° SE 03:45:45 14° E 03:48:35 10° ENE visible
05 May 4.3 05:23:49 10° SSW 05:29:19 61° WNW 05:34:52 10° NNE visible
06 May 6.6 03:30:14 10° SE 03:33:01 14° E 03:35:48 10° ENE visible
06 May 4.3 05:11:05 10° SSW 05:16:35 61° WNW 05:22:09 10° NNE visible
07 May 6.6 03:17:33 10° SE 03:20:17 14° E 03:23:02 10° ENE visible
07 May 4.3 04:58:42 12° SSW 05:03:50 62° WNW 05:09:25 10° NNE visible
